TimeMDT,TemperatureF,Dew PointF,Humidity,Sea Level PressureIn,VisibilityMPH,Wind Direction,Wind SpeedMPH,Gust SpeedMPH,PrecipitationIn,Events,Conditions,WindDirDegrees,DateUTC
12:55 AM,60.8,30.9,32,29.88,10.0,WNW,17.3,-,N/A,,Overcast,300,2012-10-13 06:55:00
1:55 AM,59.9,35.2,40,29.91,10.0,NNW,13.8,-,0.00,,Partly Cloudy,330,2012-10-13 07:55:00
2:55 AM,55.0,34.3,46,29.95,10.0,NNW,11.5,-,N/A,,Scattered Clouds,340,2012-10-13 08:55:00
3:55 AM,56.7,37.4,49,29.97,10.0,NNW,11.5,-,N/A,,Mostly Cloudy,330,2012-10-13 09:55:00
4:15 AM,57.2,39.2,51,29.98,10.0,NW,8.1,-,N/A,,Overcast,310,2012-10-13 10:15:00
4:55 AM,57.0,41.9,57,29.99,10.0,NW,12.7,-,N/A,,Overcast,310,2012-10-13 10:55:00
5:19 AM,59.0,44.6,59,30.00,10.0,NW,12.7,-,N/A,,Overcast,310,2012-10-13 11:19:00
5:41 AM,59.0,44.6,59,30.02,10.0,NW,16.1,-,N/A,,Overcast,310,2012-10-13 11:41:00
5:55 AM,58.6,45.7,62,30.02,10.0,NW,19.6,-,N/A,,Overcast,320,2012-10-13 11:55:00
6:55 AM,56.7,48.6,74,30.06,10.0,NW,19.6,25.3,0.00,,Light Drizzle,320,2012-10-13 12:55:00
7:55 AM,53.6,49.5,86,30.10,10.0,WNW,9.2,-,0.00,,Partly Cloudy,300,2012-10-13 13:55:00
8:07 AM,53.6,50.0,88,30.12,10.0,NW,9.2,-,N/A,,Mostly Cloudy,310,2012-10-13 14:07:00
8:55 AM,54.1,49.6,85,30.14,10.0,NNW,9.2,-,N/A,,Overcast,330,2012-10-13 14:55:00
9:55 AM,54.9,45.3,70,30.18,10.0,WNW,8.1,-,N/A,,Mostly Cloudy,300,2012-10-13 15:55:00
10:55 AM,60.4,43.2,53,30.19,10.0,NW,17.3,-,N/A,,Clear,310,2012-10-13 16:55:00
11:55 AM,63.9,43.0,47,30.19,10.0,WNW,19.6,25.3,N/A,,Mostly Cloudy,300,2012-10-13 17:55:00
12:25 PM,66.2,42.8,43,30.19,10.0,WNW,23.0,29.9,N/A,,Scattered Clouds,300,2012-10-13 18:25:00
12:55 PM,65.5,42.6,43,30.18,10.0,WNW,20.7,31.1,N/A,,Clear,300,2012-10-13 18:55:00
1:55 PM,65.8,42.4,43,30.18,10.0,NW,17.3,26.5,N/A,,Scattered Clouds,310,2012-10-13 19:55:00
2:55 PM,67.1,41.7,40,30.18,10.0,NNW,16.1,-,N/A,,Scattered Clouds,330,2012-10-13 20:55:00
3:55 PM,67.6,41.0,38,30.17,10.0,NW,16.1,25.3,N/A,,Scattered Clouds,320,2012-10-13 21:55:00
4:22 PM,68.0,41.0,37,30.17,10.0,NW,15.0,-,N/A,,Mostly Cloudy,320,2012-10-13 22:22:00
4:55 PM,67.6,40.8,38,30.18,10.0,NW,13.8,-,N/A,,Mostly Cloudy,320,2012-10-13 22:55:00
4:56 PM,68.0,41.0,37,30.18,10.0,NW,12.7,-,N/A,,Scattered Clouds,320,2012-10-13 22:56:00
5:55 PM,66.2,40.8,40,30.17,10.0,NW,11.5,-,N/A,,Clear,320,2012-10-13 23:55:00
6:55 PM,64.9,41.0,42,30.19,10.0,NW,8.1,-,N/A,,Clear,320,2012-10-14 00:55:00
8:55 PM,58.1,41.2,53,30.23,10.0,North,3.5,-,N/A,,Clear,360,2012-10-14 02:55:00
9:55 PM,53.4,40.3,61,30.24,10.0,Calm,Calm,-,N/A,,Clear,0,2012-10-14 03:55:00
10:55 PM,46.6,38.1,72,30.26,10.0,Calm,Calm,-,N/A,,Clear,0,2012-10-14 04:55:00
11:55 PM,49.6,39.4,68,30.25,10.0,North,3.5,-,N/A,,Clear,360,2012-10-14 05:55:00